Epoch 2010 Feb. 13.0 TT = JDT 2455240.5 T 2010 Feb. 22.66842 TT MPC q 1.7134067 (2000.0) P Q n 0.07343811 Peri. 356.73066 +0.99605735 +0.08416798 a 5.6474847 Node 357.76067 -0.05595031 +0.35086531 e 0.6966071 Incl. 45.83017 -0.06884265 +0.93263567 P 13.42
m1 = 9.2 + 5 log d + 15.0 log r